Regional Weather Roundup
Issued by NWS

Home | Current Version | Previous Version | Graphics & Text | Print | Product List | Glossary On
Versions: 1 2 3 4 5 6 7 8 9 10 11 12 13 14 15 16 17 18 19 20 21 22 23 24 25 26 27 28 29 30 31 32 33 34 35 36 37 38 39 40 41 42 43 44 45 46 47 48 49 50
000
ASUS43 KLSX 280159
RWRMO

WEATHER SUMMARY FOR MISSOURI
NATIONAL WEATHER SERVICE SPRINGFIELD MO
900 PM CDT WED AUG 27 2014

NOTE: "FAIR" INDICATES FEW OR NO CLOUDS BELOW 12,000 FEET WITH NO
       SIGNIFICANT WEATHER AND/OR OBSTRUCTIONS TO VISIBILITY.
       CURRENT SKY AND/OR WEATHER CONDITIONS ARE NOT AVAILABLE FOR
       CHILLICOTHE AND FARMINGTON.

MOZ001>031-035>038-043-044-053-054-280300-
...NORTHERN AND WESTERN MISSOURI...

CITY           SKY/WX    TMP DP  RH WIND       PRES   REMARKS
KANSAS CTY INT CLOUDY    79  72  79 E7        30.05R
KANSAS C DTWN  CLOUDY    82  72  71 E9        30.03R
LEE`S SUMMIT   MOCLDY    78  72  81 E6        30.06R
ST JOSEPH      CLOUDY    76  71  85 E7        30.04S
KIRKSVILLE     MOCLDY    73  71  93 NE6       30.09S

$$
MOZ066>068-077>081-088>096-101>105-280300-
...SOUTHWEST MISSOURI...

CITY           SKY/WX    TMP DP  RH WIND       PRES   REMARKS
SPRINGFIELD    CLOUDY    81  65  58 E9        30.05R
JOPLIN         PTCLDY    81  67  62 E8        30.03R

$$
MOZ032>034-039>042-045>050-055>058-069>072-280300-
...CENTRAL MISSOURI...

CITY           SKY/WX    TMP DP  RH WIND       PRES   REMARKS
COLUMBIA       PTCLDY    75  69  81 E6        30.07S
JEFFERSON CITY PTCLDY    74  68  81 SE3       30.05S
ROLLA          MOCLDY    73  68  84 E8        30.06S
SEDALIA        PTCLDY    79  73  82 E5        30.05S
OSAGE BEACH    CLEAR     79  68  69 E5        30.06R

$$
MOZ051-052-059>065-280300-
...EAST CENTRAL MISSOURI...

CITY           SKY/WX    TMP DP  RH WIND       PRES   REMARKS
ST LOUIS INTL  LGT RAIN  75  69  81 E3        30.07F
SPIRIT OF STL  TSTM      72  69  90 SE3       30.04F
ST CHARLES     CLOUDY    72  70  93 MISG      30.05S

$$
MOZ072>076-082>087-097>100-106>115-280300-
...SOUTH CENTRAL AND SOUTHEAST MISSOURI...

CITY           SKY/WX    TMP DP  RH WIND       PRES   REMARKS
CAPE GIRARDEAU MOCLDY    79  75  87 CALM      30.04R
FARMINGTON     CLOUDY    73  70  88 N3        30.11R
POPLAR BLUFF   PTCLDY    80  71  74 CALM      30.03R
WEST PLAINS    MOCLDY    75  68  78 NE5       30.09R

$$



USA.gov is the U.S. government's official web portal to all federal, state and local government web resources and services.